Flag for Switzerland Weather past 2 weeks in Monthey, Valais, Switzerland

Now
31 °F

Chilly.


Feels Like: 31 °F
Forecast: 18 / 34 °F
Wind: 2 mph from Southwest

Location: Aigle

Current Time: Jan 31, 2015 at 9:08:24 PM

Latest Report: Jan 31, 2015 at 8:00 PM


Visibility: N/A

Pressure: 29.26 "Hg

Humidity: 98%

Dew point: 31 °F

Location of MontheyLocation

Historic Weather in Monthey — Graph

°F

Monthey temperature yesterday

Maximum temperature yesterday: 37 °F (at 12:00 AM)
Minimum temperature yesterday: 31 °F (at 11:00 AM)
Average temperature yesterday: 34 °F

Past Weeks' High & Low Weather Summary

 TemperatureHumidityPressure
High44 °F (Jan 16, 7:00 PM)100% (Jan 17, 11:00 PM)30.42 "Hg (Jan 17, 11:00 PM)
Low22 °F (Jan 28, 6:00 AM)55% (Jan 25, 4:00 PM)29.00 "Hg (Jan 29, 11:00 PM)
Average34 °F84%29.94 "Hg
* Reported Jan 16 7:00 PM — Jan 31 7:00 PM, Monthey, Weather by CustomWeather, © 2014

Note: Actual official high and low records may vary slightly from our data, if they occured in-between our weather recording intervals... More about our weather records

Advertising

Monthey weather history for previous 24 hours

 ConditionsComfort  
Time TempWeatherWind HumidityBarometerVisibility
7:00 PM
Jan 31
33 °FFog.No wind96%29.23 "Hg3 mi
6:00 PM33 °FChilly.No wind97%29.23 "HgN/A
5:00 PM33 °FChilly.2 mph96%29.21 "HgN/A
4:00 PM35 °FOvercast.3 mph87%29.18 "Hg12 mi
3:00 PM36 °FChilly.3 mph78%29.18 "HgN/A
2:00 PM36 °FChilly.2 mph72%29.15 "HgN/A
1:00 PM36 °FOvercast.5 mph64%29.15 "Hg12 mi
12:00 PM35 °FChilly.8 mph66%29.15 "HgN/A
11:00 AM34 °FChilly.9 mph70%29.15 "HgN/A
10:00 AM31 °FOvercast.5 mph74%29.15 "Hg28 mi
9:00 AM30 °FChilly.3 mph78%29.15 "HgN/A
8:00 AM29 °FChilly.3 mph88%29.15 "HgN/A
7:00 AM25 °FPassing clouds.5 mph99%29.15 "Hg12 mi
6:00 AM25 °FChilly.1 mph100%29.18 "HgN/A
5:00 AM30 °FChilly.5 mph95%29.15 "HgN/A
3:00 AM32 °FChilly.1 mph93%29.15 "HgN/A
2:00 AM30 °FChilly.1 mph95%29.15 "HgN/A
1:00 AM31 °FChilly.1 mph96%29.15 "HgN/A
12:00 AM32 °FChilly.3 mph94%29.12 "HgN/A
11:00 PM
Jan 30
33 °FChilly.2 mph91%29.09 "HgN/A
10:00 PM32 °FChilly.6 mph92%29.09 "HgN/A
9:00 PM32 °FChilly.5 mph95%29.09 "HgN/A
Weather by CustomWeather, © 2014

See weather overviewHow to use our weather pages